Home   Weather   Regensburg   Past weeks

Flag for Germany Past Weather in Regensburg, Bavaria, Germany — Yesterday and Last 2 Weeks

Now
45 °F

Broken clouds.


Feels Like: 41 °F
Forecast: 33 / 53 °F
Wind: 6 mph from North

Location: Hohenfels

Current Time: Apr 28, 2017 at 12:33:38 pm

Latest Report: Apr 28, 2017 at 11:59 am


Visibility: N/A

Pressure: 29.85 "Hg

Humidity: 76%

Dew Point: 37 °F

Location of RegensburgLocation

Past Weather in Regensburg — Graph

°F

Regensburg Temperature Yesterday

Maximum temperature yesterday: 43 °F (at 3:36 pm)
Minimum temperature yesterday: 37 °F (at 12:09 am)
Average temperature yesterday: 40 °F

High & Low Weather Summary for the Past Weeks

 TemperatureHumidityPressure
High59 °F (Apr 15, 2:58 pm)100% (Apr 14, 12:58 am)30.60 "Hg (Apr 14, 12:58 am)
Low23 °F (Apr 21, 4:58 am)34% (Apr 24, 5:58 pm)29.73 "Hg (Apr 25, 4:59 am)
Average41 °F80%30.07 "Hg
* Reported Apr 13 11:02 am — Apr 28 11:26 am, Regensburg, Weather by CustomWeather, © 2017

Note: Actual official high and low records may vary slightly from our data, if they occured in-between our weather recording intervals... More about our weather records

Advertising

Regensburg Weather History for the Previous 24 Hours

Scroll right to see more
 ConditionsComfort  
Time TempWeatherWind HumidityBarometerVisibility
11:26 am
Fri, Apr 28
45 °FMostly cloudy.10 mph81%29.83 "HgN/A
11:20 am45 °FPartly sunny.9 mph81%29.83 "HgN/A
10:58 am45 °FBroken clouds.6 mph76%29.87 "HgN/A
9:59 am43 °FMostly cloudy.5 mph87%29.89 "HgN/A
9:44 am41 °FMostly cloudy.3 mph93%29.85 "HgN/A
9:16 am41 °FMostly cloudy.5 mph93%29.85 "HgN/A
8:59 am41 °FMostly cloudy.5 mph93%29.86 "HgN/A
8:24 am39 °FScattered clouds.3 mph100%29.85 "HgN/A
7:59 am39 °FLight rain. Fog.3 mph100%29.89 "Hg5 mi
7:10 am39 °FLight rain. Fog.3 mph100%29.85 "Hg3 mi
7:06 am39 °FLight rain. Fog.No wind100%29.85 "Hg2 mi
6:58 am39 °FLight rain. Fog.No wind100%29.89 "Hg4 mi
6:33 am39 °FLight rain. Fog.No wind100%29.85 "Hg2 mi
6:22 am39 °FLight rain. Fog.No wind100%29.86 "Hg3 mi
5:58 am39 °FLight rain. Fog.No wind100%29.89 "Hg4 mi
5:30 am39 °FFog.3 mph100%29.85 "Hg5 mi
5:21 am39 °FLight rain. Fog.3 mph100%29.85 "Hg5 mi
4:59 am39 °FLight rain. Fog.No wind100%29.88 "Hg4 mi
3:58 am39 °FLight rain. Fog.No wind100%29.90 "Hg5 mi
3:41 am39 °FLight rain. Fog.No wind100%29.85 "Hg4 mi
3:10 am39 °FLight rain. Fog.No wind100%29.87 "Hg6 mi
2:59 am39 °FLight rain. Fog.No wind100%29.91 "Hg6 mi
1:58 am39 °FLight rain. Fog.No wind100%29.92 "Hg3 mi
1:32 am39 °FLight rain. Fog.No wind100%29.89 "Hg3 mi
12:58 am39 °FLight rain. Fog.No wind100%29.95 "Hg4 mi
12:31 am39 °FLight rain. Fog.No wind100%29.91 "Hg4 mi
12:06 am39 °FLight rain. Fog.No wind100%29.92 "Hg2 mi
11:59 pm
Thu, Apr 27
39 °FLight rain. Fog.No wind100%29.97 "Hg1 mi
11:07 pm39 °FLight rain. Fog.No wind100%29.93 "Hg3 mi
10:58 pm39 °FLight rain. Fog.No wind100%29.98 "Hg3 mi
10:24 pm39 °FLight rain. Fog.No wind100%29.94 "Hg4 mi
9:58 pm39 °FFog.No wind100%29.99 "Hg4 mi
8:58 pm41 °FClear.No wind93%29.98 "HgN/A
8:23 pm41 °FPassing clouds.No wind93%29.93 "HgN/A
7:58 pm41 °FOvercast.3 mph93%29.98 "HgN/A
7:34 pm41 °FPartly sunny.5 mph93%29.92 "HgN/A
6:58 pm43 °FScattered clouds.3 mph87%29.96 "HgN/A
6:28 pm43 °FMostly cloudy.No wind87%29.93 "HgN/A
6:19 pm43 °FMore clouds than sun.No wind81%29.94 "HgN/A
5:59 pm43 °FMore clouds than sun.No wind81%29.98 "HgN/A
5:39 pm43 °FMostly cloudy.5 mph81%29.94 "HgN/A
4:59 pm43 °FMostly cloudy.3 mph81%29.99 "HgN/A
4:42 pm43 °FCloudy.No wind87%29.95 "HgN/A
4:20 pm43 °FMostly cloudy.No wind81%29.95 "HgN/A
4:04 pm43 °FCloudy.3 mph87%29.95 "HgN/A
3:36 pm43 °FLight rain. Mostly cloudy.3 mph81%29.95 "HgN/A
2:58 pm41 °FBroken clouds.5 mph87%30.01 "HgN/A
2:32 pm41 °FLight rain. Partly sunny.5 mph87%29.95 "HgN/A
2:01 pm41 °FLight rain. Mostly cloudy.3 mph93%29.95 "HgN/A
1:59 pm41 °FLight rain. Mostly cloudy.5 mph93%30.00 "HgN/A
1:31 pm41 °FMostly cloudy.5 mph87%29.95 "HgN/A
12:44 pm39 °FLight rain. More clouds than sun.7 mph93%29.94 "HgN/A
Weather by CustomWeather, © 2017

See weather overviewHow to use our weather pages